Regional Weather Roundup
Issued by NWS

Home | Current Version | Previous Version | Text Only | Print | Product List | Glossary Off
Versions: 1 2 3 4 5 6 7 8 9 10 11 12 13 14 15 16 17 18 19 20 21 22 23 24 25 26 27 28 29 30 31 32 33 34 35 36 37 38 39 40 41 42 43 44 45 46 47 48 49 50

401
ASUS45 KBOU 251607
RWRCO

WEATHER ROUNDUP FOR COLORADO
NATIONAL WEATHER SERVICE DENVER/BOULDER CO
1000 AM MDT TUE APR 25 2017

NOTE: "FAIR" INDICATES FEW OR NO CLOUDS BELOW 12000 FEET WITH NO
SIGNIFICANT WEATHER AND/OR OBSTRUCTIONS TO VISIBILITY.

COZ001>005-013-030-031-251700-
...NORTHWEST COLORADO...

CITY           SKY/WX    TMP DP  RH WIND       PRES   REMARKS
CRAIG          CLOUDY    39  32  76 CALM      29.71S
HAYDEN         NOT AVBL
MEEKER         PTSUNNY   42  35  76 NE5       29.70F
MOUNT WERNER   NOT AVBL
STEAMBOAT SPGS CLOUDY    35  31  85 NW3       29.70S
WALDEN           N/A     34  25  69 SW12      29.68S WCI  25
$$

COZ006>008-011-251700-
...WEST CENTRAL VALLEYS...

CITY           SKY/WX    TMP DP  RH WIND       PRES   REMARKS
GRAND JUNCTION PTSUNNY   50  35  56 SW9       29.67F
MONTROSE       PTSUNNY   49  28  44 VRB3      29.68F
EAGLE          PTSUNNY   43  32  65 N8        29.71F
RIFLE          FAIR      46  37  71 E5        29.68F
DELTA          FAIR      53  34  47 SW6       29.66F
NUCLA          CLOUDY    46  32  57 SE3       29.71F
$$

COZ017>023-064>068-251700-
...SOUTHWEST COLORADO...

CITY           SKY/WX    TMP DP  RH WIND       PRES   REMARKS
DURANGO        CLOUDY    44  31  60 SW7       29.68F
CORTEZ         LGT RAIN  44  37  76 CALM      29.72F
PAGOSA SPRINGS CLOUDY    38  37  97 N3        29.71F
TELLURIDE      CLOUDY    34  29  82 SE5       29.74F WCI  29
WOLF CREEK PAS SNOW      23  23 100 SW10G23   29.80R VSB<1/4 WCI  12
$$

COZ009-010-012-014-032>034-037-058>063-251700-
...CENTRAL COLORADO...

CITY           SKY/WX    TMP DP  RH WIND       PRES   REMARKS
ASPEN          PTSUNNY   31  31 100 S5        29.69S WCI  26
BUENA VISTA    FAIR      43  20  41 SW7       29.65S
COPPER MTN     LGT SNOW  25  18  74 MISG      29.72S
BERTHOUD PASS  CLOUDY    14   3  62 N21G26    29.69R WCI  -4
COTTONWOOD PAS PTSUNNY   37  19  48 W5G20     29.69S
GUNNISON       FAIR      37  29  72 VRB6      29.69F
KREMMLING      PTSUNNY   43  32  65 W10       29.71S
LEADVILLE      CLOUDY    29  19  66 NW9       29.69S WCI  20
MONARCH PASS   CLOUDY    23  21  93 W18G24    29.83R WCI   9
SALIDA         CLOUDY    46  24  42 SW15G22   29.72S
SUNLIGHT       LGT SNOW  23  23 100 S5        29.77S WCI  17
WILKERSON PASS FAIR      30  19  64 W6        29.71S WCI  24
$$

COZ069>075-251700-
...SAN LUIS VALLEY/SANGRE DE CRISTO MOUNTAINS...

CITY           SKY/WX    TMP DP  RH WIND       PRES   REMARKS
ALAMOSA        CLOUDY    46  26  45 N12       29.66R
LA VETA PASS   FAIR      39  25  56 S17G30    29.80S
SAGUACHE       CLOUDY    43  23  45 NW23      29.67F
$$

COZ035-036-038>040-251700-
...NORTHERN COLORADO FRONT RANGE...

CITY           SKY/WX    TMP DP  RH WIND       PRES   REMARKS
DENVER INTL AP PTSUNNY   54  20  26 W12       29.56R
DMNS CITY PARK   N/A     54  21  27 W13G20    29.57S
AURORA         PTSUNNY   52  20  28 NW12      29.58S
FRONT RANGE AP NOT AVBL
ERIE MUNI ARPT FAIR      51  39  62 N7        29.57S
BOULDER MUN AP FAIR      52  41  66 NE10      29.56R
CENTENNIAL     PTSUNNY   50  26  39 NW7       29.58S
BROOMFIELD     PTSUNNY   54  23  30 W21G29    29.57R
FORT COLLINS   FAIR      49  42  77 E15       29.58R
LONGMONT       FAIR      54  42  63 NE8       29.59R
$$

COZ041-046-047-076>085-087-088-251700-
...PIKES PEAK/PALMER DIVIDE AND SOUTHERN FOOTHILLS...

CITY           SKY/WX    TMP DP  RH WIND       PRES   REMARKS
COLO. SPRINGS  FAIR      51  31  46 S9        29.60S
A. F. ACADEMY  FAIR      53  18  24 SW6       29.57F
SCHRIEVER AFB  FAIR      49  33  53 E7        29.59F
ELLICOTT       NOT AVBL
FALCON         FAIR      52  15  23 SW8       29.60S
FORT CARSON    FAIR      51  37  59 SE13      29.58S
LIMON          FAIR      50  36  58 NE9       29.59S
MONUMENT HILL  FAIR      46  23  39 CALM      29.61S
TRINIDAD       FAIR      48  37  65 E3        29.61R
$$

COZ042>045-048>051-090-091-251700-
...NORTHEAST COLORADO...

CITY           SKY/WX    TMP DP  RH WIND       PRES   REMARKS
GREELEY ARPT   FAIR      51  45  79 SE10      29.60R
AKRON          FAIR      49  41  74 SE7       29.59R
BURLINGTON     NOT AVBL
WRAY           NOT AVBL
STERLING       PTSUNNY   52  43  71 CALM      29.57R
HOLYOKE        PTSUNNY   54  45  71 CALM      29.59R
FORT MORGAN    FAIR      53  42  65 NW3       29.59S
$$

COZ086-089-092>099-251700-
...SOUTHEAST COLORADO...

CITY           SKY/WX    TMP DP  RH WIND       PRES   REMARKS
PUEBLO         FAIR      53  40  61 E8        29.58S
LA JUNTA       PTSUNNY   51  40  65 SE15      29.59R
LAMAR          CLOUDY    53  40  61 NE15      29.56R
SPRINGFIELD      N/A     50  42  74 N17       29.56R
$$




USA.gov is the U.S. government's official web portal to all federal, state and local government web resources and services.